Weather History for Versailles, OH

Change the Weather History Date:

Wednesday, August 7, 2013

  Actual Average (KDAY) Record (KDAY)
Temperature  
Mean Temperature 74 °F 73 °F  
Max Temperature 82 °F 83 °F 97 °F (1918)
Min Temperature 66 °F 64 °F 52 °F (1994)
Degree Days  
Heating Degree Days 0 0  
Month to date heating degree days 0  
Since 1 June heating degree days 22  
Since 1 July heating degree days 0  
Cooling Degree Days 9 8  
Month to date cooling degree days 62  
Year to date cooling degree days 601  
Since 1 June cooling degree days 531  
Growing Degree Days 24 (Base 50)    
Moisture  
Dew Point 70 °F    
Average Humidity 89    
Maximum Humidity 100    
Minimum Humidity 66    
Precipitation  
Precipitation 0.00 in 0.09 in 2.89 in (1937)
Month to date precipitation 0.68  
Year to date precipitation 26.00  
Snow  
Snow 0.00 in 0.00 in 0.00 in ()
Month to date snowfall 0.0  
Since 1 June snowfall 0.0  
Since 1 July snowfall 0.0  
Snow Depth -    
Sea Level Pressure  
Sea Level Pressure 29.93 in    
Wind  
Wind Speed 3 mph (SSW)    
Max Wind Speed 10 mph    
Max Gust Speed -    
Visibility 5 miles    
Events Fog    
T = Trace of Precipitation, MM = Missing Value Source: NWS Daily Summary

Daily Weather History Graph

Daily Weather History Graph

Search for Another Location

Airport:

Trip Planner

Search our weather history database for the weather conditions in past years. The results will help you decide how hot, cold, wet, or windy it might be!

Date:

Astronomy

Aug. 07, 2013 Rise Set
Actual Time 6:41 AM EDT 8:45 PM EDT
Civil Twilight 6:12 AM EDT 9:14 PM EDT
Nautical Twilight 5:35 AM EDT 9:51 PM EDT
Astronomical Twilight 4:55 AM EDT 10:30 PM EDT
Moon 7:29 AM EDT (8/7) 8:51 PM EDT (8/7)
Length of Visible Light 15h 02m
Length of Day
14h 03m
New Moon, 1% of the Moon is Illuminated
Aug 7
New Moon
Aug 14
First Quarter
Aug 20
Full
Aug 28
Last Quarter
Sep 5
New

Hourly Weather History & Observations

Time (EDT) Temp. Heat Index Dew Point Humidity Pressure Visibility Wind Dir Wind Speed Gust Speed Precip Events Conditions
12:15 AM 68.0 °F - 66.2 °F 94% 29.95 in 5.0 mi Calm Calm - N/A   Scattered Clouds
12:35 AM 66.2 °F - 66.2 °F 100% 29.95 in 5.0 mi SSE 3.5 mph - N/A   Mostly Cloudy
12:55 AM 68.0 °F - 68.0 °F 100% 29.95 in 3.0 mi Calm Calm - N/A   Overcast
1:15 AM 68.0 °F - 68.0 °F 100% 29.95 in 3.0 mi Calm Calm - N/A   Overcast
1:35 AM 68.0 °F - 68.0 °F 100% 29.95 in 4.0 mi Calm Calm - N/A   Overcast
1:55 AM 66.2 °F - 66.2 °F 100% 29.95 in 5.0 mi SSE 3.5 mph - N/A   Mostly Cloudy
2:15 AM 66.2 °F - 66.2 °F 100% 29.94 in 3.0 mi South 4.6 mph - N/A   Mostly Cloudy
2:35 AM 68.0 °F - 68.0 °F 100% 29.94 in 3.0 mi Calm Calm - N/A   Scattered Clouds
2:55 AM 68.0 °F - 66.2 °F 94% 29.94 in 3.0 mi South 3.5 mph - N/A   Mostly Cloudy
3:15 AM 68.0 °F - 68.0 °F 100% 29.94 in 3.0 mi Calm Calm - N/A   Overcast
3:35 AM 68.0 °F - 68.0 °F 100% 29.94 in 2.5 mi South 4.6 mph - N/A   Overcast
3:55 AM 68.0 °F - 68.0 °F 100% 29.93 in 3.0 mi South 3.5 mph - N/A   Scattered Clouds
4:15 AM 68.0 °F - 68.0 °F 100% 29.93 in 2.5 mi South 3.5 mph - N/A   Clear
4:35 AM 68.0 °F - 68.0 °F 100% 29.93 in 2.0 mi Calm Calm - N/A   Scattered Clouds
4:55 AM 68.0 °F - 68.0 °F 100% 29.92 in 2.0 mi Calm Calm - N/A   Scattered Clouds
5:15 AM 68.0 °F - 68.0 °F 100% 29.91 in 2.5 mi Calm Calm - N/A   Clear
5:35 AM 68.0 °F - 68.0 °F 100% 29.91 in 1.8 mi Calm Calm - N/A   Mist
5:55 AM 68.0 °F - 68.0 °F 100% 29.92 in 1.5 mi Calm Calm - N/A   Mostly Cloudy
6:15 AM 68.0 °F - 68.0 °F 100% 29.92 in 1.5 mi SSW 3.5 mph - N/A   Overcast
6:35 AM 68.0 °F - 68.0 °F 100% 29.92 in 1.5 mi SSW 3.5 mph - N/A   Overcast
6:55 AM 69.8 °F - 69.8 °F 100% 29.92 in 0.5 mi SSW 3.5 mph - N/A Fog Fog
7:15 AM 69.8 °F - 69.8 °F 100% 29.93 in 0.8 mi SW 3.5 mph - N/A   Overcast
7:35 AM 69.8 °F - 69.8 °F 100% 29.92 in 1.2 mi Calm Calm - N/A   Overcast
7:55 AM 69.8 °F - 69.8 °F 100% 29.92 in 1.0 mi SSW 3.5 mph - N/A   Overcast
8:15 AM 69.8 °F - 69.8 °F 100% 29.92 in 1.0 mi SSW 4.6 mph - N/A   Overcast
8:35 AM 71.6 °F - 71.6 °F 100% 29.94 in 2.5 mi WSW 4.6 mph - N/A   Overcast
8:55 AM 71.6 °F - 71.6 °F 100% 29.95 in 3.0 mi SW 3.5 mph - N/A   Mostly Cloudy
9:15 AM 73.4 °F - 71.6 °F 94% 29.95 in 4.0 mi SSW 5.8 mph - N/A   Mostly Cloudy
9:35 AM 73.4 °F - 71.6 °F 94% 29.95 in 4.0 mi SSW 5.8 mph - N/A   Overcast
9:55 AM 75.2 °F - 71.6 °F 89% 29.95 in 4.0 mi South 5.8 mph - N/A   Mostly Cloudy
10:15 AM 77.0 °F - 71.6 °F 83% 29.95 in 3.0 mi SSW 6.9 mph - N/A   Haze
10:35 AM 77.0 °F - 71.6 °F 83% 29.96 in 5.0 mi SSW 6.9 mph - N/A   Haze
10:55 AM 77.0 °F - 71.6 °F 83% 29.95 in 7.0 mi SW 10.4 mph - N/A   Scattered Clouds
11:15 AM 77.0 °F - 71.6 °F 83% 29.95 in 10.0 mi SW 10.4 mph - N/A   Scattered Clouds
11:35 AM 77.0 °F - 71.6 °F 83% 29.95 in 4.0 mi SW 5.8 mph - N/A   Haze
11:55 AM 78.8 °F - 71.6 °F 78% 29.95 in 4.0 mi SSW 5.8 mph - N/A   Haze
12:15 PM 78.8 °F - 69.8 °F 74% 29.95 in 3.0 mi South 6.9 mph - N/A   Haze
12:35 PM 77.0 °F - 69.8 °F 78% 29.95 in 3.0 mi SSW 6.9 mph - N/A   Haze
12:55 PM 78.8 °F - 71.6 °F 78% 29.95 in 7.0 mi SW 9.2 mph - N/A   Overcast
1:15 PM 78.8 °F - 69.8 °F 74% 29.95 in 7.0 mi SSW 8.1 mph - N/A   Overcast
1:35 PM 78.8 °F - 69.8 °F 74% 29.94 in 5.0 mi SW 5.8 mph - N/A   Haze
1:55 PM 78.8 °F - 69.8 °F 74% 29.94 in 5.0 mi SSW 8.1 mph - N/A   Haze
2:15 PM 78.8 °F - 71.6 °F 78% 29.94 in 5.0 mi SW 6.9 mph - N/A   Haze
2:35 PM 78.8 °F - 71.6 °F 78% 29.93 in 7.0 mi SW 5.8 mph - N/A   Mostly Cloudy
2:55 PM 78.8 °F - 71.6 °F 78% 29.92 in 10.0 mi SW 4.6 mph - N/A   Mostly Cloudy
3:15 PM 78.8 °F - 71.6 °F 78% 29.92 in 7.0 mi SW 9.2 mph - N/A   Mostly Cloudy
3:35 PM 78.8 °F - 71.6 °F 78% 29.92 in 5.0 mi SSW 6.9 mph - N/A   Haze
3:55 PM 80.6 °F 84.6 °F 71.6 °F 74% 29.91 in 5.0 mi South 6.9 mph - N/A   Haze
4:15 PM 80.6 °F 84.6 °F 71.6 °F 74% 29.90 in 5.0 mi SSW 3.5 mph - N/A   Haze
4:35 PM 82.4 °F 86.3 °F 69.8 °F 66% 29.90 in 7.0 mi SW 4.6 mph - N/A   Mostly Cloudy
4:55 PM 80.6 °F 83.9 °F 69.8 °F 70% 29.90 in 10.0 mi SW 9.2 mph - N/A   Mostly Cloudy
5:15 PM 80.6 °F 84.6 °F 71.6 °F 74% 29.90 in 10.0 mi WSW 4.6 mph - N/A   Scattered Clouds
5:35 PM 82.4 °F 87.2 °F 71.6 °F 70% 29.90 in 10.0 mi SW 6.9 mph - N/A   Scattered Clouds
5:55 PM 80.6 °F 83.9 °F 69.8 °F 70% 29.90 in 10.0 mi WSW 6.9 mph - N/A   Scattered Clouds
6:15 PM 80.6 °F 84.6 °F 71.6 °F 74% 29.89 in 10.0 mi SW 5.8 mph - N/A   Scattered Clouds
6:35 PM 80.6 °F 83.9 °F 69.8 °F 70% 29.89 in 10.0 mi WSW 6.9 mph - N/A   Clear
6:55 PM 78.8 °F - 69.8 °F 74% 29.89 in 10.0 mi SW 5.8 mph - N/A   Clear
7:15 PM 78.8 °F - 71.6 °F 78% 29.90 in 10.0 mi West 3.5 mph - N/A   Scattered Clouds
7:35 PM 78.8 °F - 71.6 °F 78% 29.91 in 10.0 mi Calm Calm - N/A   Mostly Cloudy
7:55 PM 77.0 °F - 71.6 °F 83% 29.91 in 10.0 mi Calm Calm - N/A   Scattered Clouds
8:15 PM 77.0 °F - 71.6 °F 83% 29.91 in 10.0 mi Calm Calm - N/A   Scattered Clouds
8:35 PM 77.0 °F - 71.6 °F 83% 29.90 in 10.0 mi Calm Calm - N/A   Clear
8:55 PM 73.4 °F - 71.6 °F 94% 29.90 in 10.0 mi Calm Calm - N/A   Clear
9:15 PM 73.4 °F - 71.6 °F 94% 29.90 in 10.0 mi Calm Calm - N/A   Clear
9:35 PM 73.4 °F - 71.6 °F 94% 29.91 in 10.0 mi Calm Calm - N/A   Clear
9:55 PM 71.6 °F - 71.6 °F 100% 29.92 in 7.0 mi Calm Calm - N/A   Clear
10:15 PM 71.6 °F - 71.6 °F 100% 29.93 in 7.0 mi Calm Calm - N/A   Clear
10:35 PM 69.8 °F - 69.8 °F 100% 29.94 in 5.0 mi Calm Calm - N/A   Clear
10:55 PM 69.8 °F - 69.8 °F 100% 29.94 in 7.0 mi Calm Calm - N/A   Clear
11:15 PM 69.8 °F - 69.8 °F 100% 29.93 in 5.0 mi Calm Calm - N/A   Clear
11:35 PM 69.8 °F - 69.8 °F 100% 29.94 in 5.0 mi Calm Calm - N/A   Mostly Cloudy
11:55 PM 71.6 °F - 71.6 °F 100% 29.94 in 7.0 mi Calm Calm - N/A   Overcast